Location: Newark
(41.8083°N, 72.2500°W)
Time: 19:33:55
(UTC+00:00)

Tiangong - Visible Passes

Search period start: 19 October 2021 00:00
Search period end: 29 October 2021 00:00
Orbit: 382 x 385 km, 41.5° (Epoch: 19 October)

Date Brightness Start Highest point End Pass type
(mag) Time Alt. Az. Time Alt. Az. Time Alt. Az.
19 Oct 3.0 00:03:53 10° WSW 00:05:31 27° SW 00:05:31 27° SW visible
19 Oct 1.8 23:03:58 10° SW 23:06:58 40° SSE 23:08:20 25° ESE visible
20 Oct 4.7 00:40:29 10° W 00:40:32 10° W 00:40:32 10° W visible
20 Oct 1.2 23:40:23 10° WSW 23:43:17 68° SW 23:43:17 68° SW visible
21 Oct 1.3 22:40:20 10° WSW 22:43:27 58° SSE 22:45:59 14° E visible
22 Oct 3.8 00:17:02 10° W 00:18:10 20° W 00:18:10 20° W visible
22 Oct 1.0 23:16:54 10° W 23:20:04 85° S 23:20:51 48° E visible
23 Oct 1.2 22:16:47 10° WSW 22:19:56 75° S 22:23:07 10° E visible
23 Oct 2.5 23:53:34 10° W 23:55:42 39° W 23:55:42 39° W visible
24 Oct 1.0 22:53:24 10° W 22:56:35 86° S 22:58:23 23° E visible
25 Oct 4.6 00:30:16 10° W 00:30:33 12° W 00:30:33 12° W visible
25 Oct 1.3 23:30:04 10° W 23:33:11 59° SSW 23:33:16 59° S visible
26 Oct 1.2 22:29:53 10° W 22:33:02 76° S 22:36:01 11° ESE visible
27 Oct 3.7 00:06:51 10° W 00:08:12 19° WSW 00:08:12 19° WSW visible
27 Oct 2.0 23:06:33 10° W 23:09:34 41° SSW 23:11:01 24° SE visible
28 Oct 3.4 23:43:40 10° WSW 23:45:53 18° SSW 23:46:08 17° SSW visible
